Weather in Mikhaylovsky

Russia / Yaroslavl Oblast     57°47′00″N   39°44′07″E
temp.,
°C
wind,
m/s
gust,
m/s
humid.,
%
clouds,
%
prec.,
mm/h
press.,
hPa
HPBL,
m
17 april, sat
sat1700:00+6ene6137368 0.0 1027450
03:00+5ene613775 0.0 1028369
06:00+4ene613785 0.0 1028357
09:00+8e710565 0.0 1028572
12:00+12ene79405 0.0 1028985
15:00+13ene78345 0.0 10271218
18:00+12ene69435 0.0 1026741
21:00+8ene512620 0.0 1027318
18 april, sun
sun1800:00+5ene512720 0.0 1027279
03:00+4ene411770 0.0 1028268
06:00+3ene512823 0.0 1028299
09:00+8ene611600 0.0 1027763
12:00+12ene79455 0.0 10271656
15:00+13ene794239 0.0 10271911
18:00+11ene6952100 0.0 10271063
21:00+8ene71269100 0.0 1028658
19 april, mon
mon1900:00+6ene51077100 0.0 1030553
03:00+4ene5981100 0.0 1030462
06:00+3ene5107617 0.0 1030430
09:00+5e79525 0.0 1031791
12:00+8e78415 0.0 10301491
15:00+10e783824 0.0 10301777
18:00+9ese684119 0.0 10291668
21:00+6e5124798 0.0 1030518
20 april, tue
tue2000:00+3e513560 0.0 1030441
03:00+2e5136198 0.0 1029386
06:00+1e5126491 0.0 1029419
09:00+5e71155100 0.0 1027703
12:00+9ese81248100 0.0 10261623
15:00+10ese81250100 0.0 10231363
18:00+9ese91552100 0.0 10211372
21:00+8ese101751100 0.0 10181058
21 april, wed
wed2100:00+6ese101857100 0.1 1015997
03:00+4ese112081100 1.9 1012915
06:00+4ese101890100 2.2 1010958
09:00+5ese101790100 5.9 1008943
12:00+6ese101790100 0.3 10081004
15:00+8se81691100 1.1 10081260
18:00+8s81274100 0.3 10101187
21:00+6sse6138156 0.3 1013578